This is the latest recevied weather packets stored in our database for station/object KQ4PPF. If no packets are shown the sender has not sent any weather packets the latest 10 day(s).
| Time | Temp. | Humidity | Pressure | Rain* | Wind** | Luminosity | Snow |
|---|---|---|---|---|---|---|---|
| 1778144503 | 14.44° C | 99% | 1010.4 hPa | 3.05 mm | - | 0 W/m² | - |
| 1778144200 | 14.44° C | 99% | 1010.4 hPa | 3.05 mm | - | 0 W/m² | - |
| 1778143896 | 14.44° C | 99% | 1010.8 hPa | 6.1 mm | - | 0 W/m² | - |
| 1778143593 | 15° C | 99% | 1011 hPa | 8.89 mm | - | 0 W/m² | - |
| 1778143290 | 15° C | 99% | 1011.3 hPa | 10.67 mm | - | 0 W/m² | - |
| 1778142987 | 15° C | 99% | 1011.5 hPa | 4.83 mm | - | 0 W/m² | - |
| 1778142684 | 15° C | 99% | 1011.2 hPa | 0 mm | - | 0 W/m² | - |
| 1778142379 | 15° C | 99% | 1011.3 hPa | 0 mm | - | 0 W/m² | - |
| 1778142076 | 15° C | 99% | 1011.3 hPa | 0 mm | - | 0 W/m² | - |
| 1778141773 | 15° C | 99% | 1010.9 hPa | 0 mm | - | 0 W/m² | - |
| 1778141469 | 15° C | 99% | 1011 hPa | 0 mm | - | 0 W/m² | - |
| 1778141166 | 15° C | 99% | 1011.3 hPa | 0 mm | - | 0 W/m² | - |
| 1778140862 | 15° C | 99% | 1011.2 hPa | 0 mm | - | 0 W/m² | - |
| 1778140557 | 15.56° C | 99% | 1011.3 hPa | 0 mm | - | 0 W/m² | - |
| 1778140254 | 16.11° C | 99% | 1011.2 hPa | 0 mm | - | 0 W/m² | - |
| 1778139950 | 16.11° C | 99% | 1010.7 hPa | 0 mm | - | 0 W/m² | - |
| 1778139649 | 16.11° C | 99% | 1010.9 hPa | 0 mm | - | 0 W/m² | - |
| 1778139345 | 16.11° C | 99% | 1011.1 hPa | 0 mm | - | 0 W/m² | - |
| 1778139041 | 16.11° C | 99% | 1010.8 hPa | 0 mm | - | 0 W/m² | - |
| 1778138739 | 16.67° C | 99% | 1010.7 hPa | 0 mm | - | 0 W/m² | - |
| 1778138436 | 16.67° C | 99% | 1010.3 hPa | 0 mm | - | 0 W/m² | - |
| 1778138133 | 16.67° C | 99% | 1010.3 hPa | 0 mm | - | 0 W/m² | - |
| 1778137830 | 17.22° C | 99% | 1010.4 hPa | 0 mm | - | 0 W/m² | - |
| 1778137527 | 16.67° C | 99% | 1010.7 hPa | 0 mm | - | 0 W/m² | - |
| 1778137224 | 16.67° C | 99% | 1011 hPa | 0 mm | - | 0 W/m² | - |
* Rain latest hour (hover to see other rain measurements)
** Current wind speed in m/s (hover to see current wind gust speed)